MOLNIYA 1-90

Last updated on Oct. 29, 2020, 5:52 a.m. UTC

1 24960U 97054A   20301.95642939 -.00000063  00000-0  30460-3 0  9995
2 24960  63.5448 304.7288 6341167 300.8143  11.8265  3.18687000188960
UTC
Height (km)
Latitude
Longitude
Inclination
Orbital Period
UTC large
Height (km)
Speed (km/s)
/
Latitude / Longitude
Inclination (degrees)
Orbital Period (minutes)
Azimuth
Elevation
Range (km)
Doppler Factor
iOS Compass Heading
iOS Angle

Next 30 passes for location: Hong Kong

Rise time Rise Azimuth (degrees) Set time Set Azimuth (degrees) Duration Max altitude (degrees)

No matching passes for this satellites